<?xml version="1.0" encoding="UTF-8" standalone="no" ?><gpx xmlns="http://www.topografix.com/GPX/1/1" xmlns:gpxx="http://www.garmin.com/xmlschemas/GpxExtensions/v3" xmlns:wptx1="http://www.garmin.com/xmlschemas/WaypointExtension/v1" xmlns:gpxtpx="http://www.garmin.com/xmlschemas/TrackPointExtension/v1" creator="GuideVTT.com" version="1.1" xmlns:xsi="http://www.w3.org/2001/XMLSchema-instance" xsi:schemaLocation="http://www.topografix.com/GPX/1/1 http://www.topografix.com/GPX/1/1/gpx.xsd http://www.garmin.com/xmlschemas/GpxExtensions/v3 http://www8.garmin.com/xmlschemas/GpxExtensionsv3.xsd http://www.garmin.com/xmlschemas/WaypointExtension/v1 http://www8.garmin.com/xmlschemas/WaypointExtensionv1.xsd http://www.garmin.com/xmlschemas/TrackPointExtension/v1 http://www.garmin.com/xmlschemas/TrackPointExtensionv1.xsd">
<metadata><link href="http://www.garmin.com"><text>Garmin International</text></link><time>2013-06-22T15:13:50Z</time></metadata>
<trk><name>w68.gpx</name><extensions><gpxx:TrackExtension><gpxx:DisplayColor>Cyan</gpxx:DisplayColor></gpxx:TrackExtension></extensions><trkseg>
<trkpt lat="46.61933" lon="7.16374"><ele>0</ele><time>-0-0T0:0:0Z</time></trkpt>
<trkpt lat="46.61933" lon="7.16374"><ele>0</ele><time>-0-0T0:0:0Z</time></trkpt>
<trkpt lat="46.61928" lon="7.16410"><ele>0</ele><time>-0-0T0:0:0Z</time></trkpt>
<trkpt lat="46.61928" lon="7.16410"><ele>0</ele><time>-0-0T0:0:0Z</time></trkpt>
<trkpt lat="46.61913" lon="7.16468"><ele>0</ele><time>-0-0T0:0:0Z</time></trkpt>
<trkpt lat="46.61913" lon="7.16468"><ele>0</ele><time>-0-0T0:0:0Z</time></trkpt>
<trkpt lat="46.61913" lon="7.16512"><ele>0</ele><time>-0-0T0:0:0Z</time></trkpt>
<trkpt lat="46.61913" lon="7.16512"><ele>0</ele><time>-0-0T0:0:0Z</time></trkpt>
<trkpt lat="46.61920" lon="7.16577"><ele>0</ele><time>-0-0T0:0:0Z</time></trkpt>
<trkpt lat="46.61920" lon="7.16577"><ele>0</ele><time>-0-0T0:0:0Z</time></trkpt>
<trkpt lat="46.61936" lon="7.16616"><ele>0</ele><time>-0-0T0:0:0Z</time></trkpt>
<trkpt lat="46.61936" lon="7.16616"><ele>0</ele><time>-0-0T0:0:0Z</time></trkpt>
<trkpt lat="46.61943" lon="7.16639"><ele>0</ele><time>-0-0T0:0:0Z</time></trkpt>
<trkpt lat="46.61943" lon="7.16639"><ele>0</ele><time>-0-0T0:0:0Z</time></trkpt>
<trkpt lat="46.61958" lon="7.16628"><ele>0</ele><time>-0-0T0:0:0Z</time></trkpt>
<trkpt lat="46.61958" lon="7.16628"><ele>0</ele><time>-0-0T0:0:0Z</time></trkpt>
<trkpt lat="46.61974" lon="7.16620"><ele>0</ele><time>-0-0T0:0:0Z</time></trkpt>
<trkpt lat="46.61974" lon="7.16620"><ele>0</ele><time>-0-0T0:0:0Z</time></trkpt>
<trkpt lat="46.61984" lon="7.16657"><ele>0</ele><time>-0-0T0:0:0Z</time></trkpt>
<trkpt lat="46.61984" lon="7.16657"><ele>0</ele><time>-0-0T0:0:0Z</time></trkpt>
<trkpt lat="46.61994" lon="7.16704"><ele>0</ele><time>-0-0T0:0:0Z</time></trkpt>
<trkpt lat="46.61994" lon="7.16704"><ele>0</ele><time>-0-0T0:0:0Z</time></trkpt>
<trkpt lat="46.62019" lon="7.16736"><ele>0</ele><time>-0-0T0:0:0Z</time></trkpt>
<trkpt lat="46.62019" lon="7.16736"><ele>0</ele><time>-0-0T0:0:0Z</time></trkpt>
<trkpt lat="46.62041" lon="7.16754"><ele>0</ele><time>-0-0T0:0:0Z</time></trkpt>
<trkpt lat="46.62041" lon="7.16754"><ele>0</ele><time>-0-0T0:0:0Z</time></trkpt>
<trkpt lat="46.62061" lon="7.16779"><ele>0</ele><time>-0-0T0:0:0Z</time></trkpt>
<trkpt lat="46.62061" lon="7.16779"><ele>0</ele><time>-0-0T0:0:0Z</time></trkpt>
<trkpt lat="46.62078" lon="7.16801"><ele>0</ele><time>-0-0T0:0:0Z</time></trkpt>
<trkpt lat="46.62078" lon="7.16801"><ele>0</ele><time>-0-0T0:0:0Z</time></trkpt>
<trkpt lat="46.62096" lon="7.16823"><ele>0</ele><time>-0-0T0:0:0Z</time></trkpt>
<trkpt lat="46.62096" lon="7.16823"><ele>0</ele><time>-0-0T0:0:0Z</time></trkpt>
<trkpt lat="46.62106" lon="7.16856"><ele>0</ele><time>-0-0T0:0:0Z</time></trkpt>
<trkpt lat="46.62106" lon="7.16856"><ele>0</ele><time>-0-0T0:0:0Z</time></trkpt>
<trkpt lat="46.62109" lon="7.16921"><ele>0</ele><time>-0-0T0:0:0Z</time></trkpt>
<trkpt lat="46.62109" lon="7.16921"><ele>0</ele><time>-0-0T0:0:0Z</time></trkpt>
<trkpt lat="46.62124" lon="7.16972"><ele>0</ele><time>-0-0T0:0:0Z</time></trkpt>
<trkpt lat="46.62124" lon="7.16972"><ele>0</ele><time>-0-0T0:0:0Z</time></trkpt>
<trkpt lat="46.62146" lon="7.17047"><ele>0</ele><time>-0-0T0:0:0Z</time></trkpt>
<trkpt lat="46.62146" lon="7.17047"><ele>0</ele><time>-0-0T0:0:0Z</time></trkpt>
<trkpt lat="46.62165" lon="7.17113"><ele>0</ele><time>-0-0T0:0:0Z</time></trkpt>
<trkpt lat="46.62165" lon="7.17113"><ele>0</ele><time>-0-0T0:0:0Z</time></trkpt>
<trkpt lat="46.62172" lon="7.17174"><ele>0</ele><time>-0-0T0:0:0Z</time></trkpt>
<trkpt lat="46.62172" lon="7.17174"><ele>0</ele><time>-0-0T0:0:0Z</time></trkpt>
<trkpt lat="46.62187" lon="7.17210"><ele>0</ele><time>-0-0T0:0:0Z</time></trkpt>
<trkpt lat="46.62187" lon="7.17210"><ele>0</ele><time>-0-0T0:0:0Z</time></trkpt>
<trkpt lat="46.62204" lon="7.17257"><ele>0</ele><time>-0-0T0:0:0Z</time></trkpt>
<trkpt lat="46.62204" lon="7.17257"><ele>0</ele><time>-0-0T0:0:0Z</time></trkpt>
<trkpt lat="46.62223" lon="7.17302"><ele>0</ele><time>-0-0T0:0:0Z</time></trkpt>
<trkpt lat="46.62223" lon="7.17302"><ele>0</ele><time>-0-0T0:0:0Z</time></trkpt>
<trkpt lat="46.62252" lon="7.17304"><ele>0</ele><time>-0-0T0:0:0Z</time></trkpt>
<trkpt lat="46.62252" lon="7.17304"><ele>0</ele><time>-0-0T0:0:0Z</time></trkpt>
<trkpt lat="46.62268" lon="7.17334"><ele>0</ele><time>-0-0T0:0:0Z</time></trkpt>
<trkpt lat="46.62268" lon="7.17334"><ele>0</ele><time>-0-0T0:0:0Z</time></trkpt>
<trkpt lat="46.62258" lon="7.17381"><ele>0</ele><time>-0-0T0:0:0Z</time></trkpt>
<trkpt lat="46.62258" lon="7.17381"><ele>0</ele><time>-0-0T0:0:0Z</time></trkpt>
<trkpt lat="46.62243" lon="7.17420"><ele>0</ele><time>-0-0T0:0:0Z</time></trkpt>
<trkpt lat="46.62243" lon="7.17420"><ele>0</ele><time>-0-0T0:0:0Z</time></trkpt>
<trkpt lat="46.62243" lon="7.17469"><ele>0</ele><time>-0-0T0:0:0Z</time></trkpt>
<trkpt lat="46.62243" lon="7.17469"><ele>0</ele><time>-0-0T0:0:0Z</time></trkpt>
<trkpt lat="46.62243" lon="7.17512"><ele>0</ele><time>-0-0T0:0:0Z</time></trkpt>
<trkpt lat="46.62243" lon="7.17512"><ele>0</ele><time>-0-0T0:0:0Z</time></trkpt>
<trkpt lat="46.62263" lon="7.17504"><ele>0</ele><time>-0-0T0:0:0Z</time></trkpt>
<trkpt lat="46.62263" lon="7.17504"><ele>0</ele><time>-0-0T0:0:0Z</time></trkpt>
<trkpt lat="46.62293" lon="7.17519"><ele>0</ele><time>-0-0T0:0:0Z</time></trkpt>
<trkpt lat="46.62293" lon="7.17519"><ele>0</ele><time>-0-0T0:0:0Z</time></trkpt>
<trkpt lat="46.62316" lon="7.17562"><ele>0</ele><time>-0-0T0:0:0Z</time></trkpt>
<trkpt lat="46.62316" lon="7.17562"><ele>0</ele><time>-0-0T0:0:0Z</time></trkpt>
<trkpt lat="46.62338" lon="7.17620"><ele>0</ele><time>-0-0T0:0:0Z</time></trkpt>
<trkpt lat="46.62338" lon="7.17620"><ele>0</ele><time>-0-0T0:0:0Z</time></trkpt>
<trkpt lat="46.62364" lon="7.17689"><ele>0</ele><time>-0-0T0:0:0Z</time></trkpt>
<trkpt lat="46.62364" lon="7.17689"><ele>0</ele><time>-0-0T0:0:0Z</time></trkpt>
<trkpt lat="46.62388" lon="7.17733"><ele>0</ele><time>-0-0T0:0:0Z</time></trkpt>
<trkpt lat="46.62388" lon="7.17733"><ele>0</ele><time>-0-0T0:0:0Z</time></trkpt>
<trkpt lat="46.62413" lon="7.17805"><ele>0</ele><time>-0-0T0:0:0Z</time></trkpt>
<trkpt lat="46.62413" lon="7.17805"><ele>0</ele><time>-0-0T0:0:0Z</time></trkpt>
<trkpt lat="46.62444" lon="7.17878"><ele>0</ele><time>-0-0T0:0:0Z</time></trkpt>
<trkpt lat="46.62444" lon="7.17878"><ele>0</ele><time>-0-0T0:0:0Z</time></trkpt>
<trkpt lat="46.62461" lon="7.17931"><ele>0</ele><time>-0-0T0:0:0Z</time></trkpt>
<trkpt lat="46.62461" lon="7.17931"><ele>0</ele><time>-0-0T0:0:0Z</time></trkpt>
<trkpt lat="46.62474" lon="7.17996"><ele>0</ele><time>-0-0T0:0:0Z</time></trkpt>
<trkpt lat="46.62474" lon="7.17996"><ele>0</ele><time>-0-0T0:0:0Z</time></trkpt>
<trkpt lat="46.62487" lon="7.18066"><ele>0</ele><time>-0-0T0:0:0Z</time></trkpt>
<trkpt lat="46.62487" lon="7.18066"><ele>0</ele><time>-0-0T0:0:0Z</time></trkpt>
<trkpt lat="46.62492" lon="7.18133"><ele>0</ele><time>-0-0T0:0:0Z</time></trkpt>
<trkpt lat="46.62492" lon="7.18133"><ele>0</ele><time>-0-0T0:0:0Z</time></trkpt>
<trkpt lat="46.62504" lon="7.18166"><ele>0</ele><time>-0-0T0:0:0Z</time></trkpt>
<trkpt lat="46.62504" lon="7.18166"><ele>0</ele><time>-0-0T0:0:0Z</time></trkpt>
<trkpt lat="46.62510" lon="7.18196"><ele>0</ele><time>-0-0T0:0:0Z</time></trkpt>
<trkpt lat="46.62510" lon="7.18196"><ele>0</ele><time>-0-0T0:0:0Z</time></trkpt>
<trkpt lat="46.62497" lon="7.18235"><ele>0</ele><time>-0-0T0:0:0Z</time></trkpt>
<trkpt lat="46.62497" lon="7.18235"><ele>0</ele><time>-0-0T0:0:0Z</time></trkpt>
<trkpt lat="46.62514" lon="7.18239"><ele>0</ele><time>-0-0T0:0:0Z</time></trkpt>
<trkpt lat="46.62514" lon="7.18239"><ele>0</ele><time>-0-0T0:0:0Z</time></trkpt>
<trkpt lat="46.62530" lon="7.18300"><ele>0</ele><time>-0-0T0:0:0Z</time></trkpt>
<trkpt lat="46.62530" lon="7.18300"><ele>0</ele><time>-0-0T0:0:0Z</time></trkpt>
<trkpt lat="46.62552" lon="7.18355"><ele>0</ele><time>-0-0T0:0:0Z</time></trkpt>
<trkpt lat="46.62552" lon="7.18355"><ele>0</ele><time>-0-0T0:0:0Z</time></trkpt>
<trkpt lat="46.62565" lon="7.18410"><ele>0</ele><time>-0-0T0:0:0Z</time></trkpt>
<trkpt lat="46.62565" lon="7.18410"><ele>0</ele><time>-0-0T0:0:0Z</time></trkpt>
<trkpt lat="46.62592" lon="7.18457"><ele>0</ele><time>-0-0T0:0:0Z</time></trkpt>
<trkpt lat="46.62592" lon="7.18457"><ele>0</ele><time>-0-0T0:0:0Z</time></trkpt>
<trkpt lat="46.62613" lon="7.18508"><ele>0</ele><time>-0-0T0:0:0Z</time></trkpt>
<trkpt lat="46.62613" lon="7.18508"><ele>0</ele><time>-0-0T0:0:0Z</time></trkpt>
<trkpt lat="46.62618" lon="7.18569"><ele>0</ele><time>-0-0T0:0:0Z</time></trkpt>
<trkpt lat="46.62618" lon="7.18569"><ele>0</ele><time>-0-0T0:0:0Z</time></trkpt>
<trkpt lat="46.62633" lon="7.18624"><ele>0</ele><time>-0-0T0:0:0Z</time></trkpt>
<trkpt lat="46.62633" lon="7.18624"><ele>0</ele><time>-0-0T0:0:0Z</time></trkpt>
<trkpt lat="46.62660" lon="7.18674"><ele>0</ele><time>-0-0T0:0:0Z</time></trkpt>
<trkpt lat="46.62660" lon="7.18674"><ele>0</ele><time>-0-0T0:0:0Z</time></trkpt>
<trkpt lat="46.62685" lon="7.18721"><ele>0</ele><time>-0-0T0:0:0Z</time></trkpt>
<trkpt lat="46.62685" lon="7.18721"><ele>0</ele><time>-0-0T0:0:0Z</time></trkpt>
<trkpt lat="46.62701" lon="7.18758"><ele>0</ele><time>-0-0T0:0:0Z</time></trkpt>
<trkpt lat="46.62701" lon="7.18758"><ele>0</ele><time>-0-0T0:0:0Z</time></trkpt>
<trkpt lat="46.62723" lon="7.18837"><ele>0</ele><time>-0-0T0:0:0Z</time></trkpt>
<trkpt lat="46.62723" lon="7.18837"><ele>0</ele><time>-0-0T0:0:0Z</time></trkpt>
<trkpt lat="46.62746" lon="7.18884"><ele>0</ele><time>-0-0T0:0:0Z</time></trkpt>
<trkpt lat="46.62746" lon="7.18884"><ele>0</ele><time>-0-0T0:0:0Z</time></trkpt>
<trkpt lat="46.62746" lon="7.18935"><ele>0</ele><time>-0-0T0:0:0Z</time></trkpt>
<trkpt lat="46.62746" lon="7.18935"><ele>0</ele><time>-0-0T0:0:0Z</time></trkpt>
<trkpt lat="46.62744" lon="7.18974"><ele>0</ele><time>-0-0T0:0:0Z</time></trkpt>
<trkpt lat="46.62744" lon="7.18974"><ele>0</ele><time>-0-0T0:0:0Z</time></trkpt>
<trkpt lat="46.62756" lon="7.19040"><ele>0</ele><time>-0-0T0:0:0Z</time></trkpt>
<trkpt lat="46.62756" lon="7.19040"><ele>0</ele><time>-0-0T0:0:0Z</time></trkpt>
<trkpt lat="46.62776" lon="7.19087"><ele>0</ele><time>-0-0T0:0:0Z</time></trkpt>
<trkpt lat="46.62776" lon="7.19087"><ele>0</ele><time>-0-0T0:0:0Z</time></trkpt>
<trkpt lat="46.62799" lon="7.19164"><ele>0</ele><time>-0-0T0:0:0Z</time></trkpt>
<trkpt lat="46.62799" lon="7.19164"><ele>0</ele><time>-0-0T0:0:0Z</time></trkpt>
<trkpt lat="46.62814" lon="7.19225"><ele>0</ele><time>-0-0T0:0:0Z</time></trkpt>
<trkpt lat="46.62814" lon="7.19225"><ele>0</ele><time>-0-0T0:0:0Z</time></trkpt>
<trkpt lat="46.62830" lon="7.19304"><ele>0</ele><time>-0-0T0:0:0Z</time></trkpt>
<trkpt lat="46.62830" lon="7.19304"><ele>0</ele><time>-0-0T0:0:0Z</time></trkpt>
<trkpt lat="46.62857" lon="7.19349"><ele>0</ele><time>-0-0T0:0:0Z</time></trkpt>
<trkpt lat="46.62857" lon="7.19349"><ele>0</ele><time>-0-0T0:0:0Z</time></trkpt>
<trkpt lat="46.62879" lon="7.19399"><ele>0</ele><time>-0-0T0:0:0Z</time></trkpt>
<trkpt lat="46.62879" lon="7.19399"><ele>0</ele><time>-0-0T0:0:0Z</time></trkpt>
<trkpt lat="46.62905" lon="7.19435"><ele>0</ele><time>-0-0T0:0:0Z</time></trkpt>
<trkpt lat="46.62905" lon="7.19435"><ele>0</ele><time>-0-0T0:0:0Z</time></trkpt>
<trkpt lat="46.62930" lon="7.19497"><ele>0</ele><time>-0-0T0:0:0Z</time></trkpt>
<trkpt lat="46.62930" lon="7.19497"><ele>0</ele><time>-0-0T0:0:0Z</time></trkpt>
<trkpt lat="46.62945" lon="7.19551"><ele>0</ele><time>-0-0T0:0:0Z</time></trkpt>
<trkpt lat="46.62945" lon="7.19551"><ele>0</ele><time>-0-0T0:0:0Z</time></trkpt>
<trkpt lat="46.62975" lon="7.19609"><ele>0</ele><time>-0-0T0:0:0Z</time></trkpt>
<trkpt lat="46.62975" lon="7.19609"><ele>0</ele><time>-0-0T0:0:0Z</time></trkpt>
<trkpt lat="46.63010" lon="7.19664"><ele>0</ele><time>-0-0T0:0:0Z</time></trkpt>
<trkpt lat="46.63010" lon="7.19664"><ele>0</ele><time>-0-0T0:0:0Z</time></trkpt>
<trkpt lat="46.63030" lon="7.19703"><ele>0</ele><time>-0-0T0:0:0Z</time></trkpt>
<trkpt lat="46.63030" lon="7.19703"><ele>0</ele><time>-0-0T0:0:0Z</time></trkpt>
<trkpt lat="46.63056" lon="7.19754"><ele>0</ele><time>-0-0T0:0:0Z</time></trkpt>
<trkpt lat="46.63056" lon="7.19754"><ele>0</ele><time>-0-0T0:0:0Z</time></trkpt>
<trkpt lat="46.63070" lon="7.19797"><ele>0</ele><time>-0-0T0:0:0Z</time></trkpt>
<trkpt lat="46.63070" lon="7.19797"><ele>0</ele><time>-0-0T0:0:0Z</time></trkpt>
<trkpt lat="46.63078" lon="7.19866"><ele>0</ele><time>-0-0T0:0:0Z</time></trkpt>
<trkpt lat="46.63078" lon="7.19866"><ele>0</ele><time>-0-0T0:0:0Z</time></trkpt>
<trkpt lat="46.63093" lon="7.19921"><ele>0</ele><time>-0-0T0:0:0Z</time></trkpt>
<trkpt lat="46.63093" lon="7.19921"><ele>0</ele><time>-0-0T0:0:0Z</time></trkpt>
<trkpt lat="46.63098" lon="7.19990"><ele>0</ele><time>-0-0T0:0:0Z</time></trkpt>
<trkpt lat="46.63098" lon="7.19990"><ele>0</ele><time>-0-0T0:0:0Z</time></trkpt>
<trkpt lat="46.63104" lon="7.20047"><ele>0</ele><time>-0-0T0:0:0Z</time></trkpt>
<trkpt lat="46.63104" lon="7.20047"><ele>0</ele><time>-0-0T0:0:0Z</time></trkpt>
<trkpt lat="46.63106" lon="7.20098"><ele>0</ele><time>-0-0T0:0:0Z</time></trkpt>
<trkpt lat="46.63106" lon="7.20098"><ele>0</ele><time>-0-0T0:0:0Z</time></trkpt>
<trkpt lat="46.63114" lon="7.20160"><ele>0</ele><time>-0-0T0:0:0Z</time></trkpt>
<trkpt lat="46.63114" lon="7.20160"><ele>0</ele><time>-0-0T0:0:0Z</time></trkpt>
<trkpt lat="46.63111" lon="7.20219"><ele>0</ele><time>-0-0T0:0:0Z</time></trkpt>
<trkpt lat="46.63111" lon="7.20219"><ele>0</ele><time>-0-0T0:0:0Z</time></trkpt>
<trkpt lat="46.63114" lon="7.20262"><ele>0</ele><time>-0-0T0:0:0Z</time></trkpt>
<trkpt lat="46.63114" lon="7.20262"><ele>0</ele><time>-0-0T0:0:0Z</time></trkpt>
<trkpt lat="46.63119" lon="7.20294"><ele>0</ele><time>-0-0T0:0:0Z</time></trkpt>
<trkpt lat="46.63119" lon="7.20294"><ele>0</ele><time>-0-0T0:0:0Z</time></trkpt>
<trkpt lat="46.63119" lon="7.20339"><ele>0</ele><time>-0-0T0:0:0Z</time></trkpt>
<trkpt lat="46.63119" lon="7.20339"><ele>0</ele><time>-0-0T0:0:0Z</time></trkpt>
<trkpt lat="46.63117" lon="7.20367"><ele>0</ele><time>-0-0T0:0:0Z</time></trkpt>
<trkpt lat="46.63117" lon="7.20367"><ele>0</ele><time>-0-0T0:0:0Z</time></trkpt>
<trkpt lat="46.63137" lon="7.20378"><ele>0</ele><time>-0-0T0:0:0Z</time></trkpt>
<trkpt lat="46.63137" lon="7.20378"><ele>0</ele><time>-0-0T0:0:0Z</time></trkpt>
<trkpt lat="46.63144" lon="7.20406"><ele>0</ele><time>-0-0T0:0:0Z</time></trkpt>
<trkpt lat="46.63144" lon="7.20406"><ele>0</ele><time>-0-0T0:0:0Z</time></trkpt>
<trkpt lat="46.63152" lon="7.20447"><ele>0</ele><time>-0-0T0:0:0Z</time></trkpt>
<trkpt lat="46.63152" lon="7.20447"><ele>0</ele><time>-0-0T0:0:0Z</time></trkpt>
<trkpt lat="46.63164" lon="7.20479"><ele>0</ele><time>-0-0T0:0:0Z</time></trkpt>
<trkpt lat="46.63164" lon="7.20479"><ele>0</ele><time>-0-0T0:0:0Z</time></trkpt>
<trkpt lat="46.63144" lon="7.20502"><ele>0</ele><time>-0-0T0:0:0Z</time></trkpt>
<trkpt lat="46.63144" lon="7.20502"><ele>0</ele><time>-0-0T0:0:0Z</time></trkpt>
<trkpt lat="46.63132" lon="7.20523"><ele>0</ele><time>-0-0T0:0:0Z</time></trkpt>
<trkpt lat="46.63132" lon="7.20523"><ele>0</ele><time>-0-0T0:0:0Z</time></trkpt>
<trkpt lat="46.63125" lon="7.20553"><ele>0</ele><time>-0-0T0:0:0Z</time></trkpt>
<trkpt lat="46.63125" lon="7.20553"><ele>0</ele><time>-0-0T0:0:0Z</time></trkpt>
<trkpt lat="46.63094" lon="7.20571"><ele>0</ele><time>-0-0T0:0:0Z</time></trkpt>
<trkpt lat="46.63094" lon="7.20571"><ele>0</ele><time>-0-0T0:0:0Z</time></trkpt>
<trkpt lat="46.63057" lon="7.20600"><ele>0</ele><time>-0-0T0:0:0Z</time></trkpt>
<trkpt lat="46.63057" lon="7.20600"><ele>0</ele><time>-0-0T0:0:0Z</time></trkpt>
<trkpt lat="46.63017" lon="7.20615"><ele>0</ele><time>-0-0T0:0:0Z</time></trkpt>
<trkpt lat="46.63017" lon="7.20615"><ele>0</ele><time>-0-0T0:0:0Z</time></trkpt>
<trkpt lat="46.62972" lon="7.20640"><ele>0</ele><time>-0-0T0:0:0Z</time></trkpt>
<trkpt lat="46.62972" lon="7.20640"><ele>0</ele><time>-0-0T0:0:0Z</time></trkpt>
<trkpt lat="46.62920" lon="7.20658"><ele>0</ele><time>-0-0T0:0:0Z</time></trkpt>
<trkpt lat="46.62920" lon="7.20658"><ele>0</ele><time>-0-0T0:0:0Z</time></trkpt>
<trkpt lat="46.62875" lon="7.20658"><ele>0</ele><time>-0-0T0:0:0Z</time></trkpt>
<trkpt lat="46.62875" lon="7.20658"><ele>0</ele><time>-0-0T0:0:0Z</time></trkpt>
<trkpt lat="46.62827" lon="7.20670"><ele>0</ele><time>-0-0T0:0:0Z</time></trkpt>
<trkpt lat="46.62827" lon="7.20670"><ele>0</ele><time>-0-0T0:0:0Z</time></trkpt>
<trkpt lat="46.62782" lon="7.20685"><ele>0</ele><time>-0-0T0:0:0Z</time></trkpt>
<trkpt lat="46.62782" lon="7.20685"><ele>0</ele><time>-0-0T0:0:0Z</time></trkpt>
<trkpt lat="46.62740" lon="7.20692"><ele>0</ele><time>-0-0T0:0:0Z</time></trkpt>
<trkpt lat="46.62740" lon="7.20692"><ele>0</ele><time>-0-0T0:0:0Z</time></trkpt>
<trkpt lat="46.62700" lon="7.20710"><ele>0</ele><time>-0-0T0:0:0Z</time></trkpt>
<trkpt lat="46.62700" lon="7.20710"><ele>0</ele><time>-0-0T0:0:0Z</time></trkpt>
<trkpt lat="46.62664" lon="7.20700"><ele>0</ele><time>-0-0T0:0:0Z</time></trkpt>
<trkpt lat="46.62664" lon="7.20700"><ele>0</ele><time>-0-0T0:0:0Z</time></trkpt>
<trkpt lat="46.62612" lon="7.20706"><ele>0</ele><time>-0-0T0:0:0Z</time></trkpt>
<trkpt lat="46.62612" lon="7.20706"><ele>0</ele><time>-0-0T0:0:0Z</time></trkpt>
<trkpt lat="46.62584" lon="7.20584"><ele>0</ele><time>-0-0T0:0:0Z</time></trkpt>
<trkpt lat="46.62584" lon="7.20584"><ele>0</ele><time>-0-0T0:0:0Z</time></trkpt>
<trkpt lat="46.62564" lon="7.20478"><ele>0</ele><time>-0-0T0:0:0Z</time></trkpt>
<trkpt lat="46.62564" lon="7.20478"><ele>0</ele><time>-0-0T0:0:0Z</time></trkpt>
<trkpt lat="46.62541" lon="7.20362"><ele>0</ele><time>-0-0T0:0:0Z</time></trkpt>
<trkpt lat="46.62541" lon="7.20362"><ele>0</ele><time>-0-0T0:0:0Z</time></trkpt>
<trkpt lat="46.62516" lon="7.20243"><ele>0</ele><time>-0-0T0:0:0Z</time></trkpt>
<trkpt lat="46.62516" lon="7.20243"><ele>0</ele><time>-0-0T0:0:0Z</time></trkpt>
<trkpt lat="46.62493" lon="7.20138"><ele>0</ele><time>-0-0T0:0:0Z</time></trkpt>
<trkpt lat="46.62493" lon="7.20138"><ele>0</ele><time>-0-0T0:0:0Z</time></trkpt>
<trkpt lat="46.62471" lon="7.20011"><ele>0</ele><time>-0-0T0:0:0Z</time></trkpt>
<trkpt lat="46.62471" lon="7.20011"><ele>0</ele><time>-0-0T0:0:0Z</time></trkpt>
<trkpt lat="46.62453" lon="7.19898"><ele>0</ele><time>-0-0T0:0:0Z</time></trkpt>
<trkpt lat="46.62453" lon="7.19898"><ele>0</ele><time>-0-0T0:0:0Z</time></trkpt>
<trkpt lat="46.62428" lon="7.19789"><ele>0</ele><time>-0-0T0:0:0Z</time></trkpt>
<trkpt lat="46.62428" lon="7.19789"><ele>0</ele><time>-0-0T0:0:0Z</time></trkpt>
<trkpt lat="46.62405" lon="7.19677"><ele>0</ele><time>-0-0T0:0:0Z</time></trkpt>
<trkpt lat="46.62405" lon="7.19677"><ele>0</ele><time>-0-0T0:0:0Z</time></trkpt>
<trkpt lat="46.62380" lon="7.19568"><ele>0</ele><time>-0-0T0:0:0Z</time></trkpt>
<trkpt lat="46.62380" lon="7.19568"><ele>0</ele><time>-0-0T0:0:0Z</time></trkpt>
<trkpt lat="46.62360" lon="7.19441"><ele>0</ele><time>-0-0T0:0:0Z</time></trkpt>
<trkpt lat="46.62360" lon="7.19441"><ele>0</ele><time>-0-0T0:0:0Z</time></trkpt>
<trkpt lat="46.62340" lon="7.19343"><ele>0</ele><time>-0-0T0:0:0Z</time></trkpt>
<trkpt lat="46.62340" lon="7.19343"><ele>0</ele><time>-0-0T0:0:0Z</time></trkpt>
<trkpt lat="46.62317" lon="7.19219"><ele>0</ele><time>-0-0T0:0:0Z</time></trkpt>
<trkpt lat="46.62317" lon="7.19219"><ele>0</ele><time>-0-0T0:0:0Z</time></trkpt>
<trkpt lat="46.62291" lon="7.19082"><ele>0</ele><time>-0-0T0:0:0Z</time></trkpt>
<trkpt lat="46.62291" lon="7.19082"><ele>0</ele><time>-0-0T0:0:0Z</time></trkpt>
<trkpt lat="46.62273" lon="7.18999"><ele>0</ele><time>-0-0T0:0:0Z</time></trkpt>
<trkpt lat="46.62273" lon="7.18999"><ele>0</ele><time>-0-0T0:0:0Z</time></trkpt>
<trkpt lat="46.62253" lon="7.18883"><ele>0</ele><time>-0-0T0:0:0Z</time></trkpt>
<trkpt lat="46.62253" lon="7.18883"><ele>0</ele><time>-0-0T0:0:0Z</time></trkpt>
<trkpt lat="46.62228" lon="7.18773"><ele>0</ele><time>-0-0T0:0:0Z</time></trkpt>
<trkpt lat="46.62228" lon="7.18773"><ele>0</ele><time>-0-0T0:0:0Z</time></trkpt>
<trkpt lat="46.62205" lon="7.18654"><ele>0</ele><time>-0-0T0:0:0Z</time></trkpt>
<trkpt lat="46.62205" lon="7.18654"><ele>0</ele><time>-0-0T0:0:0Z</time></trkpt>
<trkpt lat="46.62178" lon="7.18516"><ele>0</ele><time>-0-0T0:0:0Z</time></trkpt>
<trkpt lat="46.62178" lon="7.18516"><ele>0</ele><time>-0-0T0:0:0Z</time></trkpt>
<trkpt lat="46.62155" lon="7.18394"><ele>0</ele><time>-0-0T0:0:0Z</time></trkpt>
<trkpt lat="46.62155" lon="7.18394"><ele>0</ele><time>-0-0T0:0:0Z</time></trkpt>
<trkpt lat="46.62132" lon="7.18274"><ele>0</ele><time>-0-0T0:0:0Z</time></trkpt>
<trkpt lat="46.62132" lon="7.18274"><ele>0</ele><time>-0-0T0:0:0Z</time></trkpt>
<trkpt lat="46.62107" lon="7.18154"><ele>0</ele><time>-0-0T0:0:0Z</time></trkpt>
<trkpt lat="46.62107" lon="7.18154"><ele>0</ele><time>-0-0T0:0:0Z</time></trkpt>
<trkpt lat="46.62087" lon="7.18037"><ele>0</ele><time>-0-0T0:0:0Z</time></trkpt>
<trkpt lat="46.62087" lon="7.18037"><ele>0</ele><time>-0-0T0:0:0Z</time></trkpt>
<trkpt lat="46.62061" lon="7.17911"><ele>0</ele><time>-0-0T0:0:0Z</time></trkpt>
<trkpt lat="46.62061" lon="7.17911"><ele>0</ele><time>-0-0T0:0:0Z</time></trkpt>
<trkpt lat="46.62041" lon="7.17824"><ele>0</ele><time>-0-0T0:0:0Z</time></trkpt>
<trkpt lat="46.62041" lon="7.17824"><ele>0</ele><time>-0-0T0:0:0Z</time></trkpt>
<trkpt lat="46.62020" lon="7.17701"><ele>0</ele><time>-0-0T0:0:0Z</time></trkpt>
<trkpt lat="46.62020" lon="7.17701"><ele>0</ele><time>-0-0T0:0:0Z</time></trkpt>
<trkpt lat="46.61996" lon="7.17585"><ele>0</ele><time>-0-0T0:0:0Z</time></trkpt>
<trkpt lat="46.61996" lon="7.17585"><ele>0</ele><time>-0-0T0:0:0Z</time></trkpt>
<trkpt lat="46.61975" lon="7.17479"><ele>0</ele><time>-0-0T0:0:0Z</time></trkpt>
<trkpt lat="46.61975" lon="7.17479"><ele>0</ele><time>-0-0T0:0:0Z</time></trkpt>
<trkpt lat="46.61955" lon="7.17349"><ele>0</ele><time>-0-0T0:0:0Z</time></trkpt>
<trkpt lat="46.61955" lon="7.17349"><ele>0</ele><time>-0-0T0:0:0Z</time></trkpt>
<trkpt lat="46.61929" lon="7.17240"><ele>0</ele><time>-0-0T0:0:0Z</time></trkpt>
<trkpt lat="46.61929" lon="7.17240"><ele>0</ele><time>-0-0T0:0:0Z</time></trkpt>
<trkpt lat="46.61912" lon="7.17131"><ele>0</ele><time>-0-0T0:0:0Z</time></trkpt>
<trkpt lat="46.61912" lon="7.17131"><ele>0</ele><time>-0-0T0:0:0Z</time></trkpt>
<trkpt lat="46.61889" lon="7.17015"><ele>0</ele><time>-0-0T0:0:0Z</time></trkpt>
<trkpt lat="46.61889" lon="7.17015"><ele>0</ele><time>-0-0T0:0:0Z</time></trkpt>
<trkpt lat="46.61871" lon="7.16903"><ele>0</ele><time>-0-0T0:0:0Z</time></trkpt>
<trkpt lat="46.61871" lon="7.16903"><ele>0</ele><time>-0-0T0:0:0Z</time></trkpt>
</trkseg></trk></gpx>